Chrysopouli, Greece

5:25 AM EEST on August 19, 2017 (GMT +0300)
Megas Alexandros

Weather History for LGKV - October, 2012

Change the Weather History Date:

Friday, October 26, 2012

  Actual Average Record
Temperature  
Mean Temperature 60 °F -  
Max Temperature 69 °F 62 °F 75 °F (2004)
Min Temperature 50 °F 48 °F 41 °F (2000)
Degree Days  
Heating Degree Days 6    
Growing Degree Days 10 (Base 50)    
Moisture  
Dew Point 54 °F    
Average Humidity 79    
Maximum Humidity 94    
Minimum Humidity 64    
Precipitation  
Precipitation 0.00 in - - ()
Sea Level Pressure  
Sea Level Pressure 29.85 in    
Wind  
Wind Speed 5 mph ()    
Max Wind Speed 14 mph    
Max Gust Speed -    
Visibility 6.2 miles    
Events      
Averages and records for this station are not official NWS values.
T = Trace of Precipitation, MM = Missing Value Source: Averaged Metar Reports

Daily Weather History Graph

Daily Weather History Graph

Search for Another Location

Airport or City:

Trip Planner

Search our weather history database for the weather conditions in past years. The results will help you decide how hot, cold, wet, or windy it might be!

Date:

Astronomy

Oct. 26, 2012 Rise Set
Actual Time 7:45 AM EEST 6:24 PM EEST
Civil Twilight 7:17 AM EEST 6:53 PM EEST
Nautical Twilight 6:45 AM EEST 7:25 PM EEST
Astronomical Twilight 6:13 AM EEST 7:57 PM EEST
Moon 4:32 PM EEST (10/26) 4:21 AM EEST (10/26)
Length of Visible Light 11h 35m
Length of Day
10h 39m
Waxing Gibbous, 89% of the Moon is Illuminated
Oct 26
Waxing Gibbous
Oct 29
Full
Nov 7
Last Quarter
Nov 14
New
Nov 20
First Quarter

Hourly Weather History & Observations

Time (EEST) Temp. Dew Point Humidity Pressure Visibility Wind Dir Wind Speed Gust Speed Precip Events Conditions
5:20 AM 51.8 °F 48.2 °F 88% 29.86 in - NNE 4.6 mph - N/A   Clear
5:50 AM 51.8 °F 46.4 °F 82% 29.86 in - NE 4.6 mph - N/A   Clear
6:20 AM 51.8 °F 46.4 °F 82% 29.86 in - NE 4.6 mph - N/A   Clear
6:50 AM 50.0 °F 48.2 °F 94% 29.83 in - ENE 4.6 mph - N/A   Clear
7:20 AM 50.0 °F 48.2 °F 94% 29.83 in 6.2 mi ENE 4.6 mph - N/A   Partly Cloudy
7:50 AM 50.0 °F 48.2 °F 94% 29.86 in 6.2 mi NE 4.6 mph - N/A   Partly Cloudy
8:20 AM 50.0 °F 48.2 °F 94% 29.86 in 6.2 mi NE 4.6 mph - N/A   Partly Cloudy
8:50 AM 50.0 °F 46.4 °F 87% 29.86 in 6.2 mi NE 4.6 mph - N/A   Partly Cloudy
9:20 AM 50.0 °F 46.4 °F 87% 29.86 in 6.2 mi NE 4.6 mph - N/A   Partly Cloudy
9:50 AM 51.8 °F 48.2 °F 88% 29.89 in 6.2 mi ENE 4.6 mph - N/A   Partly Cloudy
10:20 AM 55.4 °F 50.0 °F 82% 29.89 in - ENE 4.6 mph - N/A   Clear
10:50 AM 57.2 °F 53.6 °F 88% 29.89 in - Calm Calm - N/A   Clear
11:20 AM 60.8 °F 55.4 °F 82% 29.86 in - Calm Calm - N/A   Clear
11:50 AM 66.2 °F 57.2 °F 73% 29.86 in - SW 4.6 mph - N/A   Clear
12:20 PM 68.0 °F 57.2 °F 68% 29.86 in - SW 5.8 mph - N/A   Clear
12:50 PM 68.0 °F 57.2 °F 68% 29.86 in - SSW 8.1 mph - N/A   Clear
1:20 PM 68.0 °F 55.4 °F 64% 29.86 in - SW 9.2 mph - N/A   Clear
1:50 PM 69.8 °F 57.2 °F 64% 29.86 in 6.2 mi SSW 9.2 mph - N/A   Partly Cloudy
2:20 PM 69.8 °F 57.2 °F 64% 29.83 in 6.2 mi SW 13.8 mph - N/A   Partly Cloudy
2:50 PM 69.8 °F 57.2 °F 64% 29.83 in 6.2 mi SW 12.7 mph - N/A   Partly Cloudy
3:20 PM 69.8 °F 57.2 °F 64% 29.83 in 6.2 mi SW 12.7 mph - N/A   Partly Cloudy
3:50 PM 69.8 °F 57.2 °F 64% 29.83 in 6.2 mi SW 11.5 mph - N/A   Partly Cloudy
4:20 PM 69.8 °F 57.2 °F 64% 29.83 in 6.2 mi SW 9.2 mph - N/A   Partly Cloudy
4:50 PM 69.8 °F 57.2 °F 64% 29.83 in 6.2 mi WSW 8.1 mph - N/A   Partly Cloudy
5:20 PM 69.8 °F 57.2 °F 64% 29.83 in 6.2 mi WSW 8.1 mph - N/A   Partly Cloudy
5:50 PM 66.2 °F 59.0 °F 78% 29.83 in 6.2 mi West 6.9 mph - N/A   Partly Cloudy
6:20 PM 64.4 °F 59.0 °F 83% 29.83 in 6.2 mi West 6.9 mph - N/A   Partly Cloudy
6:50 PM 64.4 °F 57.2 °F 77% 29.83 in 6.2 mi NW 4.6 mph - N/A   Partly Cloudy
7:20 PM 64.4 °F 59.0 °F 83% 29.83 in 6.2 mi Calm Calm - N/A   Partly Cloudy
7:50 PM 62.6 °F 59.0 °F 88% 29.83 in 6.2 mi East 4.6 mph - N/A   Partly Cloudy
8:20 PM 60.8 °F 57.2 °F 88% 29.83 in 6.2 mi East 4.6 mph - N/A   Partly Cloudy
8:50 PM 60.8 °F 57.2 °F 88% 29.83 in 6.2 mi NE 4.6 mph - N/A   Partly Cloudy
9:20 PM 60.8 °F 57.2 °F 88% 29.83 in 6.2 mi ENE 4.6 mph - N/A   Partly Cloudy
9:50 PM 59.0 °F 57.2 °F 94% 29.86 in 6.2 mi NE 4.6 mph - N/A   Partly Cloudy